Location: Sternwarte_Laufen
(47.9344°N, 12.9346°E)
Time: 14:11:03
(UTC+02:00)

ISS - Visible Passes

Search period start: 22 October 2020 00:00
Search period end: 31 October 2020 23:00
Orbit: 417 x 420 km, 51.6° (Epoch: 22 October)

Date Brightness Start Highest point End Pass type
(mag) Time Alt. Az. Time Alt. Az. Time Alt. Az.
23 Oct -2.0 06:52:19 10° SSW 06:55:20 31° SE 06:58:22 10° E visible
24 Oct -1.4 06:05:08 10° S 06:07:44 21° SE 06:10:21 10° E visible
25 Oct -1.0 04:19:30 13° SSE 04:20:11 14° SE 04:21:58 10° ESE visible
25 Oct -3.5 05:53:08 10° WSW 05:56:29 70° SSE 05:59:50 10° ENE visible
26 Oct -2.9 05:07:10 25° SSW 05:08:46 47° SSE 05:12:02 10° ENE visible
27 Oct -1.9 04:21:43 29° ESE 04:21:43 29° ESE 04:24:09 10° E visible
27 Oct -3.7 05:54:41 12° W 05:57:46 64° NNW 06:01:08 10° ENE visible
28 Oct -3.9 05:09:07 47° WSW 05:09:59 85° NNW 05:13:22 10° ENE visible
29 Oct -2.2 04:23:28 35° E 04:23:28 35° E 04:25:36 10° ENE visible
29 Oct -3.2 05:56:26 14° W 05:59:10 45° N 06:02:26 10° ENE visible
30 Oct -0.1 03:37:46 10° ENE 03:37:46 10° ENE 03:37:47 10° ENE visible
30 Oct -3.4 05:10:43 44° NW 05:11:20 52° NNW 05:14:39 10° ENE visible
31 Oct -1.9 04:24:58 30° NE 04:24:58 30° NE 04:26:52 10° ENE visible
31 Oct -3.0 05:57:55 14° WNW 06:00:38 42° N 06:03:51 10° ENE visible
